User: anonymous
Location: Wayah Bald
(35.1806°N, 83.5603°W)
Time: 07:06:58
(UTC-04:00)
Language:

Meteor 1-27 Rocket - Orbit

View from above orbital plane
View from above orbital plane
View from above satellite
View from above satellite

Ground track
Ground track

The orbit data is extracted from the following two-line orbital elements,

1 09904U 77024B   14210.16651505  .00000197  00000-0  10938-3 0   238
2 09904 081.2611 068.2507 0054913 057.0329 061.0095 14.06734445914608
Epoch (UTC): 29 July 2014 03:59:46
Eccentricity: 0.0054913
inclination: 81.2611°
perigee height: 831 km
apogee height: 910 km
right ascension of ascending node: 68.2507°
argument of perigee: 57.0329°
revolutions per day: 14.06734445
mean anomaly at epoch: 61.0095°
orbit number at epoch: 91460

The dashed part of the orbit path shows where the satellite is in the earth's shadow,  

DLR